[[{"header":{"parameterUnit":"m.s-1","parameterCategory":1,"la1":30.2991,"la2":30.254,"lo1":-89.0895,"lo2":-89.0444,"dy":0.0017,"dx":0.0017,"nx":28,"ny":28,"refTime":"2025-09-12T03:00:00:Z","depth":0,"parameterNumber":2,"parameterNumberName":"U-component_of_WINDS"},"data":[0,0,0,0,0,0,0,0,0,0,0,0,0,0,0,0,0,0,0,0,0,0,0,0,0,0,0,0,0,0,0,0,0,0,0,0,0,0,0,0,0,0,0,0,0,0,0,0,0,0,0,0,0,0,0,0,0,0,-1.6105,-1.6105,0,-1.6105,-1.6105,-1.6105,-1.6074,-1.6073,-1.6072,-1.6072,-1.6072,-1.6073,-1.6074,0,0,0,0,0,0,0,0,0,0,0,0,0,-1.6077,-1.6077,-1.6105,-1.6105,-1.6105,-1.6105,-1.6105,-1.6105,-1.6074,-1.6073,-1.6072,-1.6071,-1.6072,-1.6073,-1.6074,0,0,0,0,0,0,0,0,0,0,0,0,0,-1.6084,-1.6077,-1.6105,-1.6089,-1.6088,-1.6105,-1.6105,-1.6105,-1.6074,-1.6073,-1.6072,-1.6071,-1.6072,-1.6073,-1.6074,-1.6106,0,0,-1.6078,-1.6078,0,0,0,0,0,0,0,0,-1.6084,-1.6085,-1.6091,-1.609,-1.6089,-1.6088,-1.6096,-1.6106,-1.6075,-1.6079,-1.6071,-1.607,-1.6079,-1.6079,-1.6082,-1.6106,-1.6106,-1.6078,-1.6078,-1.6079,-1.6079,0,0,0,0,0,0,0,-1.6083,-1.6085,-1.6105,-1.6092,-1.609,-1.6082,-1.6082,-1.6097,-1.6086,-1.6079,-1.6077,-1.6077,-1.6078,-1.6081,-1.6082,-1.6106,-1.6078,-1.6079,-1.6079,-1.608,-1.6158,-1.616,0,0,0,0,0,0,-1.6085,-1.6085,-1.6105,-1.6105,-1.6083,-1.6084,-1.6083,-1.609,-1.6086,-1.6084,-1.6078,-1.6076,-1.6079,-1.608,-1.6082,-1.612,-1.6079,-1.608,-1.6081,-1.6157,-1.6159,-1.616,0,0,0,0,0,0,-1.6084,-1.6087,-1.6105,-1.6094,-1.6096,-1.6086,-1.6093,-1.609,-1.6094,-1.6085,-1.6083,-1.6084,-1.6078,-1.608,-1.6101,-1.612,-1.6081,-1.6082,-1.6155,-1.6157,-1.6159,-1.6197,0,0,0,0,0,0,-1.6084,-1.6087,-1.6099,-1.6095,-1.6097,-1.6124,-1.6094,-1.6091,-1.6096,-1.6093,-1.609,-1.6088,-1.6078,-1.6099,-1.6102,-1.6121,-1.6083,-1.6154,-1.6156,-1.6159,-1.6194,-1.62,-1.6205,0,0,0,0,0,-1.6083,-1.6109,-1.61,-1.6102,-1.6112,-1.6125,-1.6126,-1.6114,-1.6097,-1.611,-1.6104,-1.6088,-1.6117,-1.6101,-1.6104,-1.6124,-1.6152,-1.6155,-1.6158,-1.6192,-1.6199,-1.6205,0,0,0,0,0,0,-1.6116,-1.6109,-1.6098,-1.6124,-1.6125,-1.612,-1.6135,-1.6122,-1.6128,-1.6124,-1.6108,-1.6108,-1.6132,-1.6129,-1.6112,-1.6155,-1.6132,-1.6136,-1.6156,-1.6163,-1.6168,-1.6169,-1.6083,0,0,0,0,0,-1.6126,-1.6138,-1.6131,-1.6154,-1.6156,-1.6145,-1.6151,-1.6141,-1.6142,-1.6142,-1.6138,-1.614,-1.6149,-1.6156,-1.6164,-1.6193,-1.6193,-1.6208,-1.6214,-1.6218,-1.6222,-1.6239,-1.6246,-1.617,-1.617,-1.617,0,0,-1.6148,-1.6145,-1.6154,-1.6161,-1.6161,-1.6174,-1.6146,-1.616,-1.617,-1.6144,-1.6164,-1.6161,-1.6162,-1.6187,-1.6198,-1.6186,-1.6243,-1.6222,-1.6226,-1.6227,-1.6243,-1.625,-1.6256,-1.6172,-1.6172,-1.6172,0,0,-1.6194,-1.6193,-1.6213,-1.6214,-1.6214,-1.6207,-1.6212,-1.6208,-1.6206,-1.6225,-1.6207,-1.6217,-1.6234,-1.6235,-1.6238,-1.6285,-1.6271,-1.6288,-1.6318,-1.6334,-1.634,-1.6346,-1.6364,-1.637,-1.6292,-1.6292,-1.6292,0,-1.6221,-1.6239,-1.6225,-1.6241,-1.6245,-1.6223,-1.6243,-1.6244,-1.6248,-1.6251,-1.6237,-1.6258,-1.6257,-1.6283,-1.6295,-1.6297,-1.6303,-1.6289,-1.6341,-1.6346,-1.635,-1.6367,-1.6374,-1.6294,-1.6294,-1.6294,-1.6294,0,-1.6272,-1.6285,-1.6302,-1.6306,-1.6312,-1.633,-1.6318,-1.6326,-1.6316,-1.631,-1.6331,-1.6328,-1.6336,-1.6341,-1.6331,-1.6367,-1.6359,-1.6343,-1.632,-1.636,-1.6376,-1.6382,-1.6297,-1.6297,-1.6296,-1.6295,0,0,-1.634,-1.6336,-1.6342,-1.6344,-1.6343,-1.6353,-1.6371,-1.6378,-1.6386,-1.6388,-1.6403,-1.6418,-1.6403,-1.6407,-1.6397,-1.6411,-1.645,-1.6393,-1.6393,-1.6405,-1.649,-1.6502,-1.651,-1.644,-1.6441,-1.6442,-1.649,0,-1.6385,-1.6415,-1.6403,-1.6434,-1.6446,-1.6425,-1.644,-1.6442,-1.6437,-1.6447,-1.6441,-1.6452,-1.6432,-1.6434,-1.6447,-1.6442,-1.6467,-1.6438,-1.6454,-1.6455,-1.6456,-1.6518,-1.6531,-1.6577,-1.6496,-1.6497,-1.6498,0,-1.6443,-1.6448,-1.6481,-1.6478,-1.6483,-1.6497,-1.6504,-1.6513,-1.6514,-1.651,-1.6514,-1.6501,-1.6518,-1.6494,-1.6518,-1.6499,-1.6504,-1.6503,-1.6504,-1.6506,-1.6479,-1.6523,-1.6591,-1.6598,-1.6507,-1.6506,-1.6505,0,-1.649,-1.6506,-1.6527,-1.653,-1.6527,-1.6538,-1.6537,-1.6537,-1.6543,-1.6548,-1.6552,-1.6559,-1.6564,-1.657,-1.656,-1.6543,-1.6585,-1.656,-1.6583,-1.6583,-1.6594,-1.6593,-1.6665,-1.6595,-1.6595,-1.6595,-1.6595,0,-1.6543,-1.6564,-1.6549,-1.6562,-1.6585,-1.6571,-1.6594,-1.6591,-1.6591,-1.6604,-1.6586,-1.6598,-1.6583,-1.6594,-1.6586,-1.6607,-1.6609,-1.6607,-1.6604,-1.6609,-1.661,-1.6613,-1.661,-1.6597,-1.6597,-1.6596,-1.6596,0,-1.66,-1.6591,-1.6613,-1.6609,-1.6609,-1.6626,-1.6623,-1.6635,-1.6629,-1.6645,-1.6648,-1.6639,-1.6651,-1.6641,-1.6653,-1.6647,-1.6676,-1.6669,-1.6676,-1.6675,-1.6699,-1.6697,-1.6776,-1.6787,-1.6709,-1.671,-1.671,0,-1.6635,-1.6651,-1.6649,-1.6656,-1.6657,-1.6669,-1.6675,-1.6661,-1.6668,-1.6671,-1.6683,-1.6694,-1.6702,-1.6722,-1.6717,-1.6725,-1.6719,-1.6746,-1.672,-1.6725,-1.6721,-1.6721,-1.6723,-1.6752,-1.6753,-1.6753,-1.6754,0,-1.6699,-1.6694,-1.6703,-1.6711,-1.6719,-1.6724,-1.6728,-1.6735,-1.6722,-1.673,-1.6743,-1.6749,-1.6761,-1.6772,-1.6779,-1.6779,-1.6765,-1.6762,-1.6768,-1.6774,-1.6778,-1.6777,-1.6692,-1.676,-1.676,-1.6759,-1.6759,-1.6759,-1.6747,-1.676,-1.6761,-1.6772,-1.6774,-1.6779,-1.679,-1.6786,-1.6796,-1.6805,-1.6796,-1.6812,-1.6813,-1.6821,-1.6822,-1.6834,-1.6823,-1.6831,-1.6834,-1.6836,-1.6841,-1.6775,-1.6835,-1.6835,-1.6835,-1.6835,-1.6834,0,-1.6811,-1.681,-1.6821,-1.6827,-1.6836,-1.6822,-1.6826,-1.6834,-1.6848,-1.685,-1.6859,-1.6873,-1.6884,-1.6879,-1.6889,-1.6899,-1.6893,-1.6902,-1.6902,-1.6903,-1.6849,-1.6844,-1.6907,-1.6907,-1.6907,-1.6907,-1.6907,-1.6907,-1.6845,-1.6867,-1.6862,-1.6885,-1.6885,-1.69,-1.6903,-1.6908,-1.6909,-1.6927,-1.6936,-1.6932,-1.6932,-1.6942,-1.6951,-1.6949,-1.6954,-1.6966,-1.6963,-1.6913,-1.6906,-1.6899,-1.6894,-1.6967,-1.6967,-1.7015,-1.7015,-1.7016]},{"header":{"parameterUnit":"m.s-1","parameterCategory":1,"la1":30.2991,"la2":30.254,"lo1":-89.0895,"lo2":-89.0444,"dy":0.0017,"dx":0.0017,"nx":28,"ny":28,"refTime":"2025-09-12T03:00:00:Z","depth":0,"parameterNumber":3,"parameterNumberName":"V-component_of_WINDS"},"data":[0,0,0,0,0,0,0,0,0,0,0,0,0,0,0,0,0,0,0,0,0,0,0,0,0,0,0,0,0,0,0,0,0,0,0,0,0,0,0,0,0,0,0,0,0,0,0,0,0,0,0,0,0,0,0,0,0,0,-2.2372,-2.2371,0,-2.2322,-2.2321,-2.2321,-2.2261,-2.226,-2.2259,-2.2258,-2.2204,-2.2203,-2.2203,0,0,0,0,0,0,0,0,0,0,0,0,0,-2.2414,-2.2413,-2.2372,-2.2371,-2.2371,-2.2322,-2.2321,-2.2321,-2.2261,-2.226,-2.2258,-2.2257,-2.2204,-2.2203,-2.2203,0,0,0,0,0,0,0,0,0,0,0,0,0,-2.2383,-2.2413,-2.2372,-2.2335,-2.2331,-2.2322,-2.2321,-2.232,-2.2261,-2.226,-2.2258,-2.2257,-2.2204,-2.2203,-2.2203,-2.2225,0,0,-2.22,-2.22,0,0,0,0,0,0,0,0,-2.2385,-2.2381,-2.2341,-2.2338,-2.2333,-2.2296,-2.2316,-2.2288,-2.2261,-2.2288,-2.2258,-2.2256,-2.2236,-2.2232,-2.2226,-2.2223,-2.222,-2.22,-2.2199,-2.2199,-2.2199,0,0,0,0,0,0,0,-2.2387,-2.2383,-2.2352,-2.2341,-2.2336,-2.232,-2.2314,-2.2311,-2.227,-2.2285,-2.2281,-2.2276,-2.2233,-2.2227,-2.2224,-2.2219,-2.22,-2.2199,-2.2199,-2.2198,-2.2233,-2.2234,0,0,0,0,0,0,-2.2395,-2.2385,-2.2354,-2.2351,-2.2356,-2.2321,-2.2314,-2.2309,-2.227,-2.2262,-2.2277,-2.2273,-2.2229,-2.2225,-2.2222,-2.2246,-2.2199,-2.2198,-2.2198,-2.2232,-2.2233,-2.2235,0,0,0,0,0,0,-2.2396,-2.2393,-2.2356,-2.2367,-2.2361,-2.2321,-2.2317,-2.2309,-2.2303,-2.2264,-2.2256,-2.2278,-2.2227,-2.2223,-2.2225,-2.2244,-2.2198,-2.2197,-2.223,-2.2232,-2.2234,-2.2295,0,0,0,0,0,0,-2.2398,-2.2393,-2.2402,-2.2367,-2.2361,-2.2361,-2.2318,-2.2309,-2.2302,-2.2296,-2.2262,-2.2255,-2.2226,-2.2227,-2.2224,-2.2242,-2.2196,-2.2228,-2.2231,-2.2233,-2.2292,-2.2299,-2.2306,0,0,0,0,0,-2.2399,-2.2421,-2.2403,-2.2399,-2.2371,-2.2362,-2.2358,-2.2324,-2.2303,-2.2312,-2.2286,-2.2257,-2.2242,-2.2227,-2.2224,-2.2242,-2.2227,-2.223,-2.2233,-2.2288,-2.2298,-2.2306,0,0,0,0,0,0,-2.2457,-2.2415,-2.2395,-2.2406,-2.2388,-2.2352,-2.2361,-2.2335,-2.2322,-2.2318,-2.2276,-2.2269,-2.2276,-2.2258,-2.2243,-2.2261,-2.223,-2.2233,-2.2273,-2.2282,-2.2289,-2.2293,-2.2196,0,0,0,0,0,-2.2472,-2.2469,-2.2432,-2.2445,-2.2437,-2.2401,-2.2396,-2.2372,-2.2351,-2.2343,-2.2318,-2.2298,-2.2289,-2.2284,-2.2274,-2.2288,-2.228,-2.2299,-2.2306,-2.2312,-2.2315,-2.2322,-2.233,-2.2246,-2.2246,-2.2245,0,0,-2.2501,-2.2477,-2.2478,-2.2456,-2.2439,-2.2437,-2.2395,-2.2394,-2.2392,-2.2342,-2.2344,-2.2325,-2.23,-2.2309,-2.2311,-2.2295,-2.2337,-2.2316,-2.2321,-2.2321,-2.2327,-2.2335,-2.2342,-2.2248,-2.2247,-2.2247,0,0,-2.2553,-2.2535,-2.2544,-2.2529,-2.2504,-2.248,-2.2483,-2.245,-2.2436,-2.2437,-2.24,-2.2396,-2.2381,-2.2366,-2.2356,-2.2403,-2.2375,-2.24,-2.2439,-2.2446,-2.2453,-2.2459,-2.2476,-2.2483,-2.2403,-2.2403,-2.2404,0,-2.2592,-2.2588,-2.2552,-2.2554,-2.2546,-2.2502,-2.2511,-2.2497,-2.2471,-2.2466,-2.2447,-2.2428,-2.2408,-2.2414,-2.2425,-2.2418,-2.242,-2.2404,-2.2455,-2.246,-2.2465,-2.2482,-2.2488,-2.2407,-2.2406,-2.2406,-2.2406,0,-2.2638,-2.2636,-2.2646,-2.2623,-2.2615,-2.2621,-2.2585,-2.2582,-2.2558,-2.2536,-2.2537,-2.2512,-2.2496,-2.2495,-2.2472,-2.2497,-2.2488,-2.2463,-2.243,-2.2477,-2.2492,-2.2498,-2.2412,-2.241,-2.2409,-2.2409,0,0,-2.2726,-2.2683,-2.2688,-2.2677,-2.2647,-2.2644,-2.2647,-2.2633,-2.2631,-2.2614,-2.2616,-2.2605,-2.2582,-2.2571,-2.2545,-2.2551,-2.2591,-2.2525,-2.2524,-2.2539,-2.2619,-2.2639,-2.2647,-2.2572,-2.2573,-2.2574,-2.2621,0,-2.2773,-2.2778,-2.2746,-2.2759,-2.2757,-2.2715,-2.2718,-2.27,-2.2679,-2.2673,-2.265,-2.2643,-2.2613,-2.2606,-2.261,-2.2586,-2.2607,-2.2582,-2.2574,-2.2574,-2.2583,-2.2654,-2.2675,-2.2721,-2.2627,-2.2628,-2.2628,0,-2.283,-2.2817,-2.283,-2.2801,-2.2798,-2.2802,-2.2786,-2.2781,-2.276,-2.2744,-2.2732,-2.2703,-2.2704,-2.2673,-2.2673,-2.2657,-2.2652,-2.2639,-2.264,-2.2639,-2.2605,-2.2656,-2.2735,-2.2742,-2.2637,-2.2636,-2.2636,0,-2.2894,-2.288,-2.2886,-2.2878,-2.2843,-2.2847,-2.2832,-2.2809,-2.2803,-2.2789,-2.2784,-2.277,-2.2763,-2.2752,-2.272,-2.27,-2.2725,-2.269,-2.2712,-2.2713,-2.272,-2.272,-2.28,-2.2715,-2.2715,-2.2715,-2.2714,0,-2.2951,-2.2961,-2.2915,-2.2919,-2.2929,-2.2892,-2.2902,-2.2884,-2.2864,-2.2863,-2.2825,-2.2825,-2.2782,-2.2777,-2.2751,-2.2756,-2.2753,-2.274,-2.2734,-2.2744,-2.2746,-2.2741,-2.2738,-2.2716,-2.2716,-2.2716,-2.2715,0,-2.3025,-2.2995,-2.2999,-2.2966,-2.2958,-2.2967,-2.2938,-2.294,-2.2917,-2.2917,-2.2914,-2.2878,-2.287,-2.2837,-2.2821,-2.2803,-2.2817,-2.2803,-2.2825,-2.2821,-2.2845,-2.2844,-2.2925,-2.2934,-2.2843,-2.2844,-2.2845,0,-2.3064,-2.3071,-2.3039,-2.3037,-2.3024,-2.302,-2.3014,-2.2977,-2.2972,-2.2948,-2.2953,-2.2943,-2.2933,-2.2922,-2.2894,-2.2881,-2.2868,-2.2897,-2.2865,-2.2876,-2.2869,-2.287,-2.2871,-2.2904,-2.2905,-2.2906,-2.2907,0,-2.3138,-2.3122,-2.3115,-2.3103,-2.3096,-2.3085,-2.307,-2.307,-2.3029,-2.3025,-2.3018,-2.301,-2.2994,-2.2984,-2.2967,-2.2951,-2.2923,-2.2917,-2.2922,-2.2933,-2.2946,-2.2941,-2.2845,-2.2916,-2.2915,-2.2914,-2.2914,-2.2913,-2.3196,-2.3201,-2.3179,-2.3172,-2.3158,-2.3146,-2.3147,-2.3124,-2.3117,-2.3103,-2.3081,-2.3076,-2.3054,-2.3029,-2.3015,-2.3011,-2.2995,-2.3001,-2.3003,-2.3005,-2.3011,-2.2946,-2.3007,-2.3007,-2.3007,-2.3007,-2.3006,0,-2.3268,-2.3252,-2.3247,-2.3229,-2.3223,-2.3197,-2.318,-2.3178,-2.3175,-2.3157,-2.3148,-2.314,-2.313,-2.3101,-2.3089,-2.3091,-2.3077,-2.3089,-2.3089,-2.3086,-2.3026,-2.3024,-2.31,-2.31,-2.31,-2.31,-2.31,-2.31,-2.3305,-2.3312,-2.3294,-2.3294,-2.3277,-2.3273,-2.3266,-2.3255,-2.3241,-2.3233,-2.3226,-2.3207,-2.3185,-2.3171,-2.3161,-2.3152,-2.315,-2.3166,-2.3154,-2.3099,-2.309,-2.3081,-2.3079,-2.3166,-2.3166,-2.3214,-2.3215,-2.3215]}]]